STARLINK-2512, 48319

Orbit data source: Space-Track

STARLINK-2512, 48319 is a payload satellite owned by SpaceX/Seattle (US) in LEO that was launched on Thu, 29 Apr 2021 UTC via an FALCON 9 launch vehicle from the Air Force Eastern Test Range (AFETR). Payload-class satellites include a variety of spacecraft equipped with specific instruments for various scientific and technological missions. These include communications satellites like Starlink; space stations such as the ISS; scientific satellites like the Hubble; Earth observation satellites from companies like Planet Labs, Umbra, and HawkEye 360; GPS; miniature CubeSats for education and research; and military/defense satellites.

Loading next visibility...
Identifier
48319, 2021-036AV
Orbit
LEO
Country
Flag of USUS
Related business
Manufacturer
SpaceX/Seattle
Mission
Operational Commercial Communications
Bus & Motor
STARLINK, Unknown motor
Mass
260 kg wet, ~248 kg dry
Launch date (UTC)
2021-04-29 (5 years ago)
Launch vehicle
FALCON 9
Launch site
Air Force Eastern Test Range (AFETR)
Object type
Payload
Rocket body
Debris
Shape & HBR
Box + 1 Pan, 10.1 m
Radar Cross Section
13.562 m², Large (>1 m²)

Expand to show TLE details & history
Last TLE update: 13 hours ago

TLE from 13 hours ago
0 STARLINK-2512
1 48319U 21036AV  26036.01203382 -.00004181  00000-0 -26177-3 0  9995
2 48319  53.0551 248.3030 0001402  93.4042 266.7108 15.06421170263104
Epoch: 2026-02-05T00:17Z
TLE epoch observation values (Epoch: 2026-02-05T00:17:19.722Z)
Latitude
0.00005°
Longitude
108.80048°
Altitude
548.082 km
Speed
7.589 km/s
True Right ascension
16h 33m 12s
True Declination
0° 00' 00"
Sunlit
Object was in daylight at epoch
Visualization orbit readout
Latitude
Unknown
Longitude
Unknown
Altitude
Unknown
Speed
Unknown
Apparent Right ascension
Unknown
Apparent Declination
Unknown
Sunlit
N/A
Visualization observer readout
Local Sidereal Time
15:19:30
Azimuth
Unknown
Elevation
Unknown
Doppler factor
Unknown
Orbital elements
Apogee altitude
548.388 km
Perigee altitude
546.446 km
Semi-major axis
6,925.554 km
Eccentricity
0.00014
Inclination
53.0551°
RAAN
248.303°
Arg. of periapsis
93.4042°
True anomaly
266.69476°
Mean anomaly
266.7108°
Eccentric anomaly
266.70278°
Mean motion
3.76584 °/min
Orbital period
95.6 mins
BSTAR
-0.00026177
Loading maneuver chart data...
Computing Atmospheric mass density...
Loading historical data...
Loading historical data...
Loading historical data...
Loading historical data...
Loading historical data...
Loading historical data...
Loading historical data...

Documentation

Showing up to 5 results
|